N6HGA-1 Weather Reports


Display with metric or nautical units.
time (UTC)temp
F
wind
direction
speed
MPH
gust
MPH
rain 1hr
in
rain 24hr
in
rain mn
in
humidity
%
barometer
mb
20260506160748 63 312 3.0 6.0 0.00 0.00 0.00 64
20260506160246 63 62 5.0 6.0 0.00 0.00 0.00 64
20260506155743 63 17 2.0 4.0 0.00 0.00 0.00 65
20260506155241 63 38 1.0 3.0 0.00 0.00 0.00 64
20260506154739 63 59 1.0 3.0 0.00 0.00 0.00 63
20260506154238 63 190 0.0 1.0 0.00 0.00 0.00 65
20260506153236 61 165 2.0 5.0 0.00 0.00 0.00 67
20260506152736 61 155 2.0 5.0 0.00 0.00 0.00 68
20260506152233 60 228 3.0 8.0 0.00 0.00 0.00 68
20260506151732 59 179 3.0 7.0 0.00 0.00 0.00 69
20260506151232 59 188 4.0 10.0 0.00 0.00 0.00 70
20260506150729 58 176 7.0 10.0 0.00 0.00 0.00 69
20260506150229 58 162 8.0 11.0 0.00 0.00 0.00 69
20260506145728 59 172 6.0 11.0 0.00 0.00 0.00 69
20260506145227 58 181 3.0 6.0 0.00 0.00 0.00 71
20260506144725 58 187 3.0 9.0 0.00 0.00 0.00 72
20260506144222 57 215 2.0 4.0 0.00 0.00 0.00 74
20260506143722 56 179 1.0 4.0 0.00 0.00 0.00 76
20260506143221 55 153 0.0 1.0 0.00 0.00 0.00 78
20260506142720 55 0 0.0 0.0 0.00 0.00 0.00 80
20260506142219 54 262 0.0 3.0 0.00 0.00 0.00 80
20260506141718 54 269 0.0 4.0 0.00 0.00 0.00 80
20260506141218 53 293 0.0 3.0 0.00 0.00 0.00 81
20260506140718 53 307 1.0 3.0 0.00 0.00 0.00 82
20260506140217 53 0 0.0 0.0 0.00 0.00 0.00 84
20260506135717 52 0 0.0 0.0 0.00 0.00 0.00 84
20260506135217 52 0 0.0 0.0 0.00 0.00 0.00 85
20260506134715 51 0 0.0 0.0 0.00 0.00 0.00 86
20260506134214 51 308 1.0 4.0 0.00 0.00 0.00 85
20260506133714 51 252 3.0 6.0 0.00 0.00 0.00 85
20260506133214 51 233 3.0 5.0 0.00 0.00 0.00 88
20260506132707 50 219 5.0 9.0 0.00 0.00 0.00 89
20260506132206 49 215 5.0 8.0 0.00 0.00 0.00 90
20260506131705 49 212 4.0 8.0 0.00 0.00 0.00 89
20260506131205 48 208 2.0 5.0 0.00 0.00 0.00 88
20260506130704 48 225 2.0 5.0 0.00 0.00 0.00 87
20260506130204 48 231 4.0 5.0 0.00 0.00 0.00 87
20260506125701 49 232 0.0 5.0 0.00 0.00 0.00 85
20260506125201 49 0 0.0 0.0 0.00 0.00 0.00 86
20260506124701 49 0 0.0 0.0 0.00 0.00 0.00 88
20260506124200 49 343 0.0 1.0 0.00 0.00 0.00 87
20260506123156 49 0 0.0 0.0 0.00 0.00 0.00 87
20260506122655 49 0 0.0 0.0 0.00 0.00 0.00 87
20260506122155 49 0 0.0 0.0 0.00 0.00 0.00 86
20260506121655 49 246 1.0 3.0 0.00 0.00 0.00 86
20260506121155 50 231 1.0 4.0 0.00 0.00 0.00 86
20260506120654 50 323 0.0 1.0 0.00 0.00 0.00 85
20260506120151 50 225 1.0 5.0 0.00 0.00 0.00 86
20260506115651 50 235 2.0 5.0 0.00 0.00 0.00 84
20260506114649 50 262 2.0 4.0 0.00 0.00 0.00 85
20260506114149 50 231 3.0 5.0 0.00 0.00 0.00 84
20260506113648 50 221 2.0 5.0 0.00 0.00 0.00 84
20260506113148 50 229 2.0 4.0 0.00 0.00 0.00 84
20260506112644 51 245 3.0 6.0 0.00 0.00 0.00 84
20260506112140 51 250 2.0 5.0 0.00 0.00 0.00 84
20260506111635 51 229 3.0 6.0 0.00 0.00 0.00 84
20260506111134 51 232 0.0 3.0 0.00 0.00 0.00 84
20260506110633 51 229 3.0 7.0 0.00 0.00 0.00 84
20260506110130 51 215 4.0 8.0 0.00 0.00 0.00 84
20260506105627 51 235 5.0 9.0 0.00 0.00 0.00 84
20260506105127 51 203 5.0 8.0 0.00 0.00 0.00 84
20260506104626 51 219 6.0 10.0 0.00 0.00 0.00 84
20260506104126 51 222 6.0 11.0 0.00 0.00 0.00 84
20260506103626 51 238 5.0 10.0 0.00 0.00 0.00 84
20260506103125 51 212 5.0 9.0 0.00 0.00 0.00 84
20260506102624 51 233 5.0 10.0 0.00 0.00 0.00 84
20260506102124 51 235 5.0 9.0 0.00 0.00 0.00 84
20260506101625 51 217 7.0 12.0 0.00 0.00 0.00 84
20260506101121 51 245 4.0 9.0 0.00 0.00 0.00 84
20260506100620 51 225 5.0 10.0 0.00 0.00 0.00 84
20260506100119 51 222 5.0 9.0 0.00 0.00 0.00 83
20260506095617 52 224 5.0 10.0 0.00 0.00 0.00 83
20260506095117 52 229 6.0 10.0 0.00 0.00 0.00 83
20260506094617 52 233 5.0 12.0 0.00 0.00 0.00 83
20260506094117 52 239 4.0 9.0 0.00 0.00 0.00 82
20260506093615 52 235 6.0 11.0 0.00 0.00 0.00 83
20260506093114 52 235 5.0 12.0 0.00 0.00 0.00 82
20260506092614 52 221 6.0 10.0 0.00 0.00 0.00 82
20260506092114 52 253 5.0 9.0 0.00 0.00 0.00 83
20260506091615 51 226 4.0 9.0 0.00 0.00 0.00
20260506091613 51 226 4.0 9.0 0.00 0.00 0.00 83
20260506091112 51 235 5.0 12.0 0.00 0.00 0.00 83
20260506090612 51 215 5.0 11.0 0.00 0.00 0.00 83
20260506090104 51 221 5.0 9.0 0.00 0.00 0.00 82
20260506085604 51 249 6.0 11.0 0.00 0.00 0.00 83
20260506084603 51 242 7.0 12.0 0.00 0.00 0.00 82
20260506084101 51 236 7.0 14.0 0.00 0.00 0.00 82
20260506084059 51 236 7.0 14.0 0.00 0.00 0.00 82
20260506083557 51 226 8.0 17.0 0.00 0.00 0.00 82
20260506083056 52 225 7.0 14.0 0.00 0.00 0.00 82
20260506082556 52 232 6.0 14.0 0.00 0.00 0.00 82
20260506082051 52 235 5.0 12.0 0.00 0.00 0.00 82
20260506082049 52 235 5.0 12.0 0.00 0.00 0.00 82
20260506081550 52 222 6.0 14.0 0.00 0.00 0.00 82
20260506081047 52 226 6.0 12.0 0.00 0.00 0.00 82
20260506080547 52 232 7.0 11.0 0.00 0.00 0.00 82
20260506080133 52 212 7.0 11.0 0.00 0.00 0.00 82
20260506072533 52 240 6.0 10.0 0.00 0.00 0.00 83
20260506072104 52 218 7.0 14.0 0.00 0.00 0.00 82
20260506072033 52 218 7.0 14.0 0.00 0.00 0.00 82
20260506071532 52 224 6.0 12.0 0.00 0.00 0.00 82
20260506071032 52 231 5.0 10.0 0.00 0.00 0.00 82
20260506070532 52 221 6.0 12.0 0.00 0.00 0.00 82
20260506062026 52 235 6.0 13.0 0.00 0.00 0.00 80
20260506061526 52 214 6.0 12.0 0.00 0.00 0.00 80
20260506061017 52 257 5.0 10.0 0.00 0.00 0.00 80
20260506060515 52 222 5.0 9.0 0.00 0.00 0.00 80
20260506051007 53 267 4.0 10.0 0.00 0.00 0.00 80
20260506050507 53 233 6.0 13.0 0.00 0.00 0.00 80
20260506045002 53 249 4.0 8.0 0.00 0.00 0.00 80
20260506044002 53 225 6.0 12.0 0.00 0.00 0.00 80
20260506043002 53 238 6.0 14.0 0.00 0.00 0.00 80
20260506042452 53 246 6.0 16.0 0.00 0.00 0.00 80
20260506041950 54 260 5.0 10.0 0.00 0.00 0.00 79
20260506041449 54 271 4.0 9.0 0.00 0.00 0.00 79
20260506040949 54 257 6.0 11.0 0.00 0.00 0.00 79
20260506040445 54 243 7.0 12.0 0.00 0.00 0.00 79
20260506035945 54 242 5.0 12.0 0.00 0.00 0.00 79
20260506035445 54 271 4.0 9.0 0.00 0.00 0.00 79
20260506034944 54 263 5.0 9.0 0.00 0.00 0.00 78
20260506034436 54 248 4.0 11.0 0.00 0.00 0.00 78
20260506033934 54 252 6.0 12.0 0.00 0.00 0.00 78
20260506033434 54 255 7.0 12.0 0.00 0.00 0.00 77
20260506032933 54 255 5.0 10.0 0.00 0.00 0.00 77
20260506032433 55 255 7.0 14.0 0.00 0.00 0.00 77
20260506031932 55 257 6.0 11.0 0.00 0.00 0.00 93
20260506031424 55 257 8.0 13.0 0.00 0.00 0.00 93
20260506030915 55 257 7.0 13.0 0.00 0.00 0.00 92
20260506030410 55 250 6.0 11.0 0.00 0.00 0.00 92
20260506025910 55 252 8.0 13.0 0.00 0.00 0.00 92
20260506025908 55 252 8.0 13.0 0.00 0.00 0.00 92
20260506025408 56 257 9.0 16.0 0.00 0.00 0.00 91
20260506025128 56 257 8.0 13.0 0.00 0.00 0.00 90
20260506024907 56 257 8.0 13.0 0.00 0.00 0.00 90
20260506024407 56 250 8.0 13.0 0.00 0.00 0.00 90
20260506023907 56 259 6.0 11.0 0.00 0.00 0.00 89
20260506023403 57 267 6.0 10.0 0.00 0.00 0.00 88
20260506022901 57 259 7.0 12.0 0.00 0.00 0.00 88
20260506022401 58 257 9.0 17.0 0.00 0.00 0.00 87
20260506021900 58 259 7.0 13.0 0.00 0.00 0.00 87
20260506021359 58 260 10.0 17.0 0.00 0.00 0.00 86
20260506021357 58 260 10.0 17.0 0.00 0.00 0.00 86
20260506020846 58 262 12.0 20.0 0.00 0.00 0.00 87
20260506020357 58 245 11.0 20.0 0.00 0.00 0.00 86
20260506015844 59 255 8.0 17.0 0.00 0.00 0.00 86
20260506015343 59 249 10.0 18.0 0.00 0.00 0.00 85
20260506014843 59 262 10.0 18.0 0.00 0.00 0.00 85
20260506014341 59 245 11.0 19.0 0.00 0.00 0.00 84
20260506013841 59 255 12.0 23.0 0.00 0.00 0.00 84
20260506012840 60 267 10.0 18.0 0.00 0.00 0.00 83
20260506012339 60 255 8.0 15.0 0.00 0.00 0.00 82
20260506011839 60 262 10.0 21.0 0.00 0.00 0.00 82
20260506011339 61 259 13.0 19.0 0.00 0.00 0.00 82
20260506010839 61 253 13.0 22.0 0.00 0.00 0.00 82
20260506010338 61 252 13.0 22.0 0.00 0.00 0.00 81
20260506005838 61 269 12.0 19.0 0.00 0.00 0.00 81
20260506005338 62 271 11.0 22.0 0.00 0.00 0.00 80
20260506004837 62 249 12.0 20.0 0.00 0.00 0.00 79
20260506004337 62 253 11.0 19.0 0.00 0.00 0.00 79
20260506003334 63 253 12.0 22.0 0.00 0.00 0.00 79
20260506002834 63 245 14.0 22.0 0.00 0.00 0.00 78
20260506002330 63 264 13.0 21.0 0.00 0.00 0.00 77
20260506001829 64 259 13.0 25.0 0.00 0.00 0.00 76
20260506001329 64 249 13.0 21.0 0.00 0.00 0.00 76
20260506000829 64 253 9.0 18.0 0.00 0.00 0.00 76
20260506000330 64 240 9.0 16.0 0.00 0.00 0.00 76
20260505235822 64 250 13.0 25.0 0.00 0.00 0.00 76
20260505235319 64 253 10.0 17.0 0.00 0.00 0.00 76
20260505234819 63 249 11.0 19.0 0.00 0.00 0.00 76
20260505234319 63 259 11.0 20.0 0.00 0.00 0.00 77
20260505233816 64 249 12.0 24.0 0.00 0.00 0.00 76
20260505233315 64 255 12.0 21.0 0.00 0.00 0.00 76
20260505232810 64 226 13.0 25.0 0.00 0.00 0.00 76
20260505232310 64 255 9.0 19.0 0.00 0.00 0.00 77
20260505231809 64 249 10.0 20.0 0.00 0.00 0.00 76
20260505231306 64 250 11.0 22.0 0.00 0.00 0.00 76
20260505230806 63 248 12.0 20.0 0.00 0.00 0.00 78
20260505230302 63 255 16.0 31.0 0.00 0.00 0.00 78
20260505225802 63 243 12.0 21.0 0.00 0.00 0.00 77
20260505225305 63 253 14.0 26.0 0.00 0.00 0.00 77
20260505224800 64 256 12.0 22.0 0.00 0.00 0.00 76
20260505224300 64 250 15.0 25.0 0.00 0.00 0.00 75
20260505223800 65 249 13.0 24.0 0.00 0.00 0.00 74
20260505222753 66 229 12.0 21.0 0.00 0.00 0.00 74
20260505222252 66 253 11.0 23.0 0.00 0.00 0.00 73
20260505221752 65 236 11.0 23.0 0.00 0.00 0.00 73
20260505221250 65 249 13.0 25.0 0.00 0.00 0.00 73
20260505220748 65 253 11.0 23.0 0.00 0.00 0.00 74
20260505220246 64 253 10.0 23.0 0.00 0.00 0.00 75
20260505215745 64 263 12.0 20.0 0.00 0.00 0.00 75
20260505215244 64 238 14.0 24.0 0.00 0.00 0.00 74
20260505214744 65 263 12.0 20.0 0.00 0.00 0.00 74
20260505214243 65 249 12.0 26.0 0.00 0.00 0.00 73
20260505213738 66 249 12.0 25.0 0.00 0.00 0.00 73
20260505213236 66 264 11.0 23.0 0.00 0.00 0.00 73
20260505212736 66 252 12.0 25.0 0.00 0.00 0.00 74
20260505212234 65 252 11.0 21.0 0.00 0.00 0.00 74
20260505211731 65 269 12.0 20.0 0.00 0.00 0.00 73
20260505211230 65 250 11.0 25.0 0.00 0.00 0.00 74
20260505210730 65 273 12.0 20.0 0.00 0.00 0.00 73
20260505210230 65 243 10.0 24.0 0.00 0.00 0.00 74
20260505205729 64 250 12.0 23.0 0.00 0.00 0.00 75
20260505205229 64 256 13.0 21.0 0.00 0.00 0.00 74
20260505204729 65 249 9.0 25.0 0.00 0.00 0.00 74
20260505204229 64 249 11.0 21.0 0.00 0.00 0.00 77
20260505203728 64 263 13.0 20.0 0.00 0.00 0.00 77
20260505203228 63 253 9.0 18.0 0.00 0.00 0.00 77
20260505201725 62 255 11.0 23.0 0.00 0.00 0.00 79
20260505201225 62 248 12.0 21.0 0.00 0.00 0.00 78
20260505200725 63 256 10.0 17.0 0.00 0.00 0.00 76
20260505200225 63 253 9.0 17.0 0.00 0.00 0.00 75
20260505195724 63 273 7.0 13.0 0.00 0.00 0.00 75
20260505195224 63 253 8.0 16.0 0.00 0.00 0.00 75
20260505194724 62 255 9.0 17.0 0.00 0.00 0.00 76
20260505194223 63 256 8.0 18.0 0.00 0.00 0.00 75
20260505193723 63 250 10.0 18.0 0.00 0.00 0.00 75
20260505193223 64 243 10.0 20.0 0.00 0.00 0.00 75
20260505192721 63 256 8.0 15.0 0.00 0.00 0.00 74
20260505192219 63 249 10.0 20.0 0.00 0.00 0.00 75
20260505191717 63 246 8.0 17.0 0.00 0.00 0.00 74
20260505191214 62 217 7.0 13.0 0.00 0.00 0.00 75
20260505190209 62 233 7.0 14.0 0.00 0.00 0.00 76
20260505185709 61 267 7.0 15.0 0.00 0.00 0.00 78
20260505185209 60 239 9.0 16.0 0.00 0.00 0.00 79
20260505184701 61 249 9.0 18.0 0.00 0.00 0.00 79
20260505184201 61 262 8.0 15.0 0.00 0.00 0.00 79
20260505183705 61 250 10.0 16.0 0.00 0.00 0.00 77
20260505182659 61 255 7.0 14.0 0.00 0.00 0.00 78
20260505182159 61 260 8.0 14.0 0.00 0.00 0.00 79
20260505181658 61 255 7.0 17.0 0.00 0.00 0.00 78
20260505181157 62 222 7.0 15.0 0.00 0.00 0.00 76
20260505180655 63 255 8.0 15.0 0.00 0.00 0.00 76
20260505180155 63 233 8.0 15.0 0.00 0.00 0.00 76
20260505175652 63 212 6.0 12.0 0.00 0.00 0.00 79
20260505175149 62 238 6.0 15.0 0.00 0.00 0.00 78
20260505174645 61 226 7.0 14.0 0.00 0.00 0.00 77
20260505173641 60 249 9.0 17.0 0.00 0.00 0.00 72
20260505173141 59 253 9.0 18.0 0.00 0.00 0.00 72
20260505172641 60 255 11.0 18.0 0.00 0.00 0.00 70
20260505172140 60 222 8.0 15.0 0.00 0.00 0.00 71
20260505171640 60 219 7.0 13.0 0.00 0.00 0.00 69
20260505171140 60 277 6.0 15.0 0.00 0.00 0.00 71
20260505170635 60 270 7.0 13.0 0.00 0.00 0.00 70
20260505170130 59 242 6.0 14.0 0.00 0.00 0.00 68
20260505165630 59 240 7.0 13.0 0.00 0.00 0.00 68
20260505165130 59 270 10.0 16.0 0.00 0.00 0.00 68
20260505164629 59 245 7.0 16.0 0.00 0.00 0.00 67
20260505164129 59 262 7.0 16.0 0.00 0.00 0.00 67
20260505163621 58 260 6.0 16.0 0.00 0.00 0.00 68
20260505163121 58 257 7.0 12.0 0.00 0.00 0.00 69
20260505162619 57 264 7.0 14.0 0.00 0.00 0.00 71
20260505162119 57 253 8.0 17.0 0.00 0.00 0.00 71
20260505161619 57 245 7.0 15.0 0.00 0.00 0.00 71
20260505161119 56 262 6.0 16.0 0.00 0.00 0.00 73